Retour au catalogue

STARLINK-3072

ActifCommunicationsVLEO
NORAD 49153·PAYLOAD·🇺🇸 United States

Lancé Sep 14, 2021 depuis Vandenberg Space Force Base

Loading…

Prochains Passages (prochaines 24 heures)

TLE

FraisSource: CelesTrak SupGP

Époque: Sep 14, 2026, 21:34 UTC

1 49153C 21082Z   26257.89909722 -.00019376  00000+0 -16245-2 0  2577
2 49153  70.0001 137.3924 0002964 271.0649  91.0143 14.98324686    11

Suivez STARLINK-3072 en temps réel avec AllMySat

Download on the App Store